sat.trackr.live / text

‹ back to catalog

GEESAT-6 11

NORAD 65723 · 2025-214M

PAYLOAD ACTIVE UNKNOWN

§ Identity

Operator
Country
PRC
Launch date
2025-09-24
Launch site
YSLA
Launch vehicle
Mass (kg)
RCS (m²)

External: N2YO · Heavens-Above · Gunter

§ Orbital elements

Epoch: 2026-05-25T00:42:59.363136Z

Period
97.08 min
Inclination
49.9847°
Eccentricity
0.0009865
Mean motion
14.83263190 rev/d
Perigee alt
612.1 km
Apogee alt
625.9 km
Semi-major
6,997.2 km
B*
2.0123e-4
RAAN
55.2178°
Arg perigee
133.4351°
Mean anomaly
226.7409°
Rev number
3,607

§ Raw data

GEESAT-6 111 65723U 25214M   26145.02985374  .00001437  00000+0  20123-3 0  99982 65723  49.9847  55.2178 0009865 133.4351 226.7409 14.83263190 36075

JSON: /api/v1/satellites/65723 · /tle

For live sub-satellite position, see the globe view (requires WebGL).

§ Visibility from observer

Set your observer location to see the next 7 days of passes ≥ 10°. The values pass through the URL so the page stays shareable.

No JS? Fill the form by hand. The geolocation button needs JavaScript.